Hourly Weather Thimphu

Today, 30 September, Wednesday

Time Temperature Precipitation Wind Pressure Humidity
00:00 +10°C° 0 mm 0 mps 525 mmHg 95%
01:00 +10°C° 0 mm 0 mps 525 mmHg 95%
02:00 +10°C° 0 mm 0 mps 524 mmHg 94%
03:00 +10°C° 0 mm 1 mps 524 mmHg 93%
04:00 +10°C° 0 mm 1 mps 524 mmHg 92%
05:00 +10°C° 0 mm 1 mps 524 mmHg 90%
06:00 +9°C° 0 mm 1 mps 524 mmHg 89%
07:00 +12°C° 0 mm 1 mps 525 mmHg 83%
08:00 +14°C° 0 mm 1 mps 527 mmHg 76%
09:00 +18°C° 0 mm 1 mps 529 mmHg 70%
10:00 +19°C° 0.1 mm 1 mps 529 mmHg 67%
11:00 +18°C° 0.1 mm 2 mps 529 mmHg 64%
12:00 +19°C° 0.1 mm 2 mps 529 mmHg 61%
13:00 +18°C° 0.4 mm 2 mps 528 mmHg 66%
14:00 +18°C° 0.4 mm 2 mps 527 mmHg 70%
15:00 +17°C° 0.4 mm 2 mps 526 mmHg 74%
16:00 +16°C° 0.3 mm 1 mps 525 mmHg 81%
17:00 +14°C° 0.3 mm 1 mps 524 mmHg 88%
18:00 +11°C° 0.3 mm 0 mps 523 mmHg 96%
19:00 +11°C° 0.1 mm 0 mps 524 mmHg 95%
20:00 +12°C° 0.1 mm 1 mps 524 mmHg 95%
21:00 +11°C° 0.1 mm 1 mps 525 mmHg 94%
22:00 +11°C° 0 mm 1 mps 524 mmHg 93%
23:00 +11°C° 0 mm 1 mps 524 mmHg 92%

Tomorrow, 1 October, Thursday

Time Temperature Precipitation Wind Pressure Humidity
00:00 +10°C° 0 mm 1 mps 524 mmHg 91%
01:00 +10°C° 0 mm 1 mps 523 mmHg 90%
02:00 +10°C° 0 mm 1 mps 523 mmHg 89%
03:00 +9°C° 0 mm 1 mps 523 mmHg 88%
04:00 +9°C° 0 mm 1 mps 523 mmHg 87%
05:00 +9°C° 0 mm 1 mps 523 mmHg 86%
06:00 +9°C° 0 mm 1 mps 523 mmHg 85%
07:00 +12°C° 0 mm 1 mps 525 mmHg 76%
08:00 +15°C° 0 mm 1 mps 527 mmHg 67%
09:00 +19°C° 0 mm 1 mps 529 mmHg 58%
10:00 +18°C° 0 mm 2 mps 529 mmHg 56%
11:00 +19°C° 0 mm 2 mps 529 mmHg 55%
12:00 +20°C° 0 mm 3 mps 529 mmHg 54%
13:00 +19°C° 0.5 mm 2 mps 528 mmHg 62%
14:00 +18°C° 0.5 mm 2 mps 526 mmHg 70%
15:00 +17°C° 0.5 mm 2 mps 525 mmHg 78%
16:00 +15°C° 0.4 mm 1 mps 524 mmHg 84%
17:00 +14°C° 0.4 mm 1 mps 524 mmHg 89%
18:00 +11°C° 0.4 mm 0 mps 523 mmHg 95%
19:00 +11°C° 0.1 mm 0 mps 523 mmHg 94%
20:00 +10°C° 0.1 mm 0 mps 524 mmHg 93%
21:00 +10°C° 0.1 mm 0 mps 524 mmHg 93%
22:00 +11°C° 0 mm 1 mps 524 mmHg 92%
23:00 +10°C° 0 mm 1 mps 524 mmHg 91%

Day after tomorrow, 2 October, Friday

Time Temperature Precipitation Wind Pressure Humidity
00:00 +10°C° 0 mm 1 mps 523 mmHg 90%
01:00 +10°C° 0 mm 1 mps 523 mmHg 89%
02:00 +9°C° 0 mm 1 mps 523 mmHg 88%
03:00 +9°C° 0 mm 1 mps 522 mmHg 87%
04:00 +9°C° 0 mm 1 mps 523 mmHg 86%
05:00 +9°C° 0 mm 1 mps 523 mmHg 85%
06:00 +9°C° 0 mm 1 mps 523 mmHg 84%
07:00 +12°C° 0 mm 1 mps 525 mmHg 77%
08:00 +14°C° 0 mm 1 mps 527 mmHg 69%
09:00 +18°C° 0 mm 1 mps 529 mmHg 61%
10:00 +18°C° 0.1 mm 2 mps 529 mmHg 61%
11:00 +18°C° 0.1 mm 2 mps 529 mmHg 60%
12:00 +19°C° 0.1 mm 2 mps 529 mmHg 60%
13:00 +18°C° 0.6 mm 2 mps 528 mmHg 67%
14:00 +17°C° 0.6 mm 2 mps 527 mmHg 73%
15:00 +16°C° 0.6 mm 2 mps 526 mmHg 80%
16:00 +15°C° 0.3 mm 1 mps 525 mmHg 86%
17:00 +14°C° 0.3 mm 1 mps 524 mmHg 91%
18:00 +11°C° 0.3 mm 0 mps 524 mmHg 96%
19:00 +11°C° 0.1 mm 0 mps 524 mmHg 96%
20:00 +10°C° 0.1 mm 0 mps 524 mmHg 95%
21:00 +11°C° 0.1 mm 1 mps 525 mmHg 94%
22:00 +11°C° 0 mm 1 mps 524 mmHg 93%
23:00 +10°C° 0 mm 1 mps 524 mmHg 93%

3 October, Saturday

Time Temperature Precipitation Wind Pressure Humidity
00:00 +10°C° 0 mm 1 mps 524 mmHg 92%
01:00 +10°C° 0 mm 1 mps 524 mmHg 91%
02:00 +10°C° 0 mm 1 mps 524 mmHg 91%
03:00 +10°C° 0 mm 1 mps 524 mmHg 90%
04:00 +10°C° 0 mm 1 mps 524 mmHg 90%
05:00 +10°C° 0 mm 1 mps 524 mmHg 90%
06:00 +9°C° 0 mm 1 mps 524 mmHg 90%
07:00 +12°C° 0 mm 1 mps 526 mmHg 85%
08:00 +14°C° 0 mm 1 mps 527 mmHg 79%
09:00 +16°C° 0 mm 1 mps 529 mmHg 74%
10:00 +16°C° 0.3 mm 1 mps 529 mmHg 73%
11:00 +17°C° 0.3 mm 2 mps 529 mmHg 71%
12:00 +18°C° 0.3 mm 2 mps 529 mmHg 70%
13:00 +17°C° 0.8 mm 2 mps 528 mmHg 75%
14:00 +16°C° 0.8 mm 2 mps 527 mmHg 81%
15:00 +15°C° 0.8 mm 2 mps 526 mmHg 87%
16:00 +14°C° 0.3 mm 1 mps 525 mmHg 90%
17:00 +13°C° 0.3 mm 1 mps 525 mmHg 93%
18:00 +11°C° 0.3 mm 0 mps 524 mmHg 96%
19:00 +11°C° 0.1 mm 0 mps 525 mmHg 95%
20:00 +11°C° 0.1 mm 1 mps 525 mmHg 94%
21:00 +11°C° 0.1 mm 1 mps 526 mmHg 93%
22:00 +11°C° 0.1 mm 1 mps 525 mmHg 92%
23:00 +10°C° 0.1 mm 1 mps 525 mmHg 92%

4 October, Sunday

Time Temperature Precipitation Wind Pressure Humidity
00:00 +10°C° 0.1 mm 1 mps 525 mmHg 92%
01:00 +10°C° 0 mm 1 mps 525 mmHg 92%
02:00 +9°C° 0 mm 1 mps 524 mmHg 91%
03:00 +9°C° 0 mm 1 mps 524 mmHg 91%
04:00 +9°C° 0 mm 1 mps 524 mmHg 91%
05:00 +9°C° 0 mm 1 mps 524 mmHg 90%
06:00 +9°C° 0 mm 1 mps 524 mmHg 90%
07:00 +11°C° 0 mm 1 mps 526 mmHg 84%
08:00 +14°C° 0 mm 1 mps 528 mmHg 78%
09:00 +16°C° 0 mm 1 mps 530 mmHg 72%
10:00 +18°C° 0.2 mm 1 mps 530 mmHg 68%
11:00 +18°C° 0.2 mm 2 mps 530 mmHg 64%
12:00 +19°C° 0.2 mm 2 mps 530 mmHg 60%
13:00 +18°C° 0.5 mm 2 mps 529 mmHg 66%
14:00 +17°C° 0.5 mm 2 mps 528 mmHg 72%
15:00 +17°C° 0.5 mm 2 mps 527 mmHg 77%
16:00 +15°C° 0.3 mm 1 mps 526 mmHg 83%
17:00 +13°C° 0.3 mm 1 mps 525 mmHg 89%
18:00 +11°C° 0.3 mm 0 mps 524 mmHg 95%
19:00 +10°C° 0 mm 0 mps 524 mmHg 95%
20:00 +10°C° 0 mm 0 mps 525 mmHg 95%
21:00 +10°C° 0 mm 1 mps 525 mmHg 95%
22:00 +10°C° 0 mm 1 mps 525 mmHg 94%
23:00 +9°C° 0 mm 0 mps 525 mmHg 93%

5 October, Monday

Time Temperature Precipitation Wind Pressure Humidity
00:00 +9°C° 0 mm 0 mps 525 mmHg 93%
01:00 +9°C° 0 mm 0 mps 525 mmHg 92%
02:00 +10°C° 0 mm 0 mps 524 mmHg 91%
03:00 +10°C° 0 mm 0 mps 524 mmHg 90%
04:00 +9°C° 0 mm 0 mps 524 mmHg 90%
05:00 +9°C° 0 mm 0 mps 524 mmHg 90%
06:00 +9°C° 0 mm 0 mps 524 mmHg 90%
07:00 +11°C° 0.1 mm 1 mps 525 mmHg 88%
08:00 +13°C° 0.1 mm 1 mps 527 mmHg 85%
09:00 +14°C° 0.1 mm 1 mps 528 mmHg 82%
10:00 +14°C° 0.7 mm 1 mps 527 mmHg 83%
11:00 +14°C° 0.7 mm 1 mps 527 mmHg 84%
12:00 +14°C° 0.7 mm 1 mps 527 mmHg 85%
13:00 +15°C° 0.4 mm 1 mps 527 mmHg 85%
14:00 +15°C° 0.4 mm 1 mps 526 mmHg 85%
15:00 +15°C° 0.4 mm 1 mps 526 mmHg 85%
16:00 +14°C° 0.3 mm 1 mps 526 mmHg 88%
17:00 +12°C° 0.3 mm 0 mps 525 mmHg 92%
18:00 +11°C° 0.3 mm 0 mps 525 mmHg 96%
19:00 +11°C° 0.1 mm 0 mps 525 mmHg 96%
20:00 +10°C° 0.1 mm 0 mps 525 mmHg 96%
21:00 +10°C° 0.1 mm 0 mps 525 mmHg 96%
22:00 +10°C° 0.1 mm 0 mps 525 mmHg 96%
23:00 +10°C° 0.1 mm 0 mps 525 mmHg 96%
Show more

We Need Your Consent

Meteoprog and our Service Providers may store and access personal data such as cookies, device identifiers or other similar technologies on your device and process such data to personalise content and ads, as well as provide social media features and to analyse the traffic.

  • Store and/or access information on your device

    Cookies, device identifiers or other information can be stored or accessed on your device for the purposes indicated above.

  • Personalised ads and content, ad and content measurement, audience insights, and products development

    Ads and content can be personalised based on a profile. More data can be added to better personalise ads and content. Ad and content performance can be measured. Insights about the audience who saw the ads and content can be derived. Such data can be used to develop or improve user’s experience, systems and software.

By clicking ‘I Agree’ you will allow the use of indicated cookies, device identifiers, web beacons or other similar technologies. Your settings can be changed in the browser on your device.

For certain purposes, legitimate interests may be relied on, rather than consent. You can read more about this in our Privacy and Cookie Policy.